Regional Weather Roundup
Issued by NWS Sioux Falls, SD

Home | Current Version | Previous Version | Graphics & Text | Print | Product List | Glossary On
Versions: 1 2 3 4 5 6 7 8 9 10 11 12 13 14 15 16 17 18 19 20 21 22 23 24 25 26 27 28 29 30 31 32 33 34 35 36 37 38 39 40 41 42 43 44 45 46 47 48 49 50
000
ASUS43 KFSD 291802
RWRFSD

WEATHER ROUNDUP FOR SE SOUTH DAKOTA/SW MINNESOTA/NW IOWA
NATIONAL WEATHER SERVICE SIOUX FALLS SD
100 PM CDT WED JUL 29 2015

NOTE: "FAIR" INDICATES FEW OR NO CLOUDS BELOW 12,000 FEET WITH NO
SIGNIFICANT WEATHER AND OR OBSTRUCTIONS TO VISIBILITY.


SDZ038>040-050-052>070-291900-
SOUTHEAST SOUTH DAKOTA

CITY           SKY/WX    TMP DP  RH WIND       PRES   REMARKS
BROOKINGS      FAIR      75  54  46 W23G29    30.10S
CHAMBERLAIN    SUNNY     82  46  27 W17G23    30.14F
6HR MIN TEMP:  61; 6HR MAX TEMP:  82;

HURON          SUNNY     82  51  34 NW22      30.08F
6HR MIN TEMP:  59; 6HR MAX TEMP:  82;

MADISON        FAIR      77  50  38 W21       30.12S
MITCHELL       SUNNY     83  50  31 W16G25    30.12F
6HR MIN TEMP:  61; 6HR MAX TEMP:  83;

SIOUX FALLS    FAIR      79  55  43 W16G25    30.13S
6HR MIN TEMP:  61; 6HR MAX TEMP:  79;

WINNER         FAIR      85  41  21 NW17G24   30.18F
YANKTON        FAIR      81  50  34 W17       30.14F
$$

MNZ071-072-080-081-089-090-097-098-291900-
SOUTHWEST MINNESOTA

CITY           SKY/WX    TMP DP  RH WIND       PRES   REMARKS
FAIRMONT       FAIR      81  52  36 W18G24    30.07S
JACKSON        FAIR      79  55  44 W18G28    30.10F
LUVERNE        FAIR      79  52  38 W17G23    30.13F
MARSHALL       FAIR      79  52  38 W25G33    30.06S
6HR MIN TEMP:  63; 6HR MAX TEMP:  79;

MONTEVIDEO     FAIR      81  55  41 NW14G26   30.01S
PIPESTONE      FAIR      77  54  44 W17G26    30.11F
REDWOOD FALLS  FAIR      81  53  37 W24G32    30.01S
TRACY          FAIR      79  55  44 W10G22    30.07S
WINDOM         FAIR      79  54  41 W21G29    30.08F
WORTHINGTON    FAIR      75  54  46 W20G25    30.12S
$$

IAZ001>003-012>014-020>022-031-032-NEZ013-014-SDZ071-291900-
NORTHWEST IOWA

CITY           SKY/WX    TMP DP  RH WIND       PRES   REMARKS
DENISON        FAIR      79  59  50 W10G17    30.15S
ESTHERVILLE    FAIR      78  55  44 W14G29    30.10S
SIOUX CITY     FAIR      81  57  43 W12       30.15F
6HR MIN TEMP:  58; 6HR MAX TEMP:  81;

SPENCER        FAIR      81  55  40 W18G26    30.13S
6HR MIN TEMP:  58; 6HR MAX TEMP:  81;

$$

ABBREVIATIONS USED IN REMARKS
   TC - TEMPERATURE IN CELSIUS
  WCI - WIND CHILL INDEX
   HX - HEAT INDEX
  VSB - VISIBILITY




USA.gov is the U.S. government's official web portal to all federal, state and local government web resources and services.